ALOS (DAICHI)

Last updated on Wed Jul 02 2025 00:02:14 GMT+0000 (Coordinated Universal Time)

1 28931U 06002A 25182.61735125 .00001098 00000+0 19663-3 0 9994 2 28931 98.0847 135.6200 0001835 59.8896 300.2490 14.68766917 36619
UTC large
Height (km)
Speed (km/s)
/
Latitude / Longitude
Inclination (degrees)
Orbital Period (minutes)
Azimuth
Elevation
Range (km)
Doppler Factor

Next 0 passes for location: London (51.5072 / 0.1276)

Sorry there are no passes over London.